IW8RUI-5 Weather Reports


Display with metric or nautical units.
time (UTC)temp
F
wind
direction
speed
MPH
gust
MPH
rain 1hr
in
rain 24hr
in
rain mn
in
humidity
%
barometer
mb
20260502195924 41 180 0.0 0.0 0.00 0.00 0.00 10 1014.0
20260502195424 41 157 0.0 0.0 0.00 0.00 0.00 10 1014.0
20260502194924 41 179 0.0 0.0 0.00 0.00 0.00 10 1014.0
20260502194424 41 179 0.0 0.0 0.00 0.00 0.00 10 1014.0
20260502193924 42 169 0.0 0.0 0.00 0.00 0.00 10 1014.0
20260502193424 42 161 0.0 0.0 0.00 0.00 0.00 10 1014.0
20260502192924 42 159 0.0 0.0 0.00 0.00 0.00 10 1014.0
20260502192429 42 167 0.0 0.0 0.00 0.00 0.00 10 1014.0
20260502191958 42 153 0.0 0.0 0.00 0.00 0.00 10 1014.0
20260502191924 42 153 0.0 0.0 0.00 0.00 0.00 10 1014.0
20260502191425 42 178 0.0 0.0 0.00 0.00 0.00 10 1014.0
20260502190924 42 177 0.0 0.0 0.00 0.00 0.00 10 1014.0
20260502190424 42 153 0.0 0.0 0.00 0.00 0.00 10 1014.0
20260502185924 42 159 0.0 0.0 0.00 0.00 0.00 10 1013.0
20260502185424 42 177 0.0 0.0 0.00 0.00 0.00 10 1013.0
20260502184924 42 173 0.0 0.0 0.00 0.00 0.00 10 1013.0
20260502184424 42 167 0.0 0.0 0.00 0.00 0.00 10 1013.0
20260502183924 42 175 0.0 0.0 0.00 0.00 0.00 10 1013.0
20260502183425 42 155 0.0 0.0 0.00 0.00 0.00 10 1013.0
20260502182924 42 152 0.0 0.0 0.00 0.00 0.00 10 1013.0
20260502182424 42 166 0.0 0.0 0.00 0.00 0.00 10 1013.0
20260502181924 42 167 0.0 0.0 0.00 0.00 0.00 10 1013.0
20260502181424 42 176 0.0 0.0 0.00 0.00 0.00 10 1013.0
20260502180924 43 164 0.0 0.0 0.00 0.00 0.00 10 1013.0
20260502180424 43 165 0.0 0.0 0.00 0.00 0.00 10 1013.0
20260502170424 46 154 0.0 0.0 0.00 0.00 0.00 10 1013.0
20260502163924 52 176 0.0 0.0 0.00 0.00 0.00 10 1012.0
20260502163424 52 152 0.0 0.0 0.00 0.00 0.00 11 1012.0
20260502162925 52 176 0.0 0.0 0.00 0.00 0.00 11 1012.0
20260502162424 53 170 0.0 0.0 0.00 0.00 0.00 10 1012.0
20260502161924 51 165 0.0 0.0 0.00 0.00 0.00 10 1012.0
20260502161424 51 157 0.0 0.0 0.00 0.00 0.00 11 1012.0
20260502160924 51 154 0.0 0.0 0.00 0.00 0.00 11 1012.0
20260502160424 52 172 0.0 0.0 0.00 0.00 0.00 10 1012.0
20260502151924 51 167 0.0 0.0 0.00 0.00 0.00 11 1012.0
20260502151424 51 165 0.0 0.0 0.00 0.00 0.00 11 1012.0
20260502150924 52 167 0.0 0.0 0.00 0.00 0.00 10 1012.0
20260502150424 51 173 0.0 0.0 0.00 0.00 0.00 10 1012.0
20260502130424 50 154 0.0 0.0 0.00 0.00 0.00 10 1012.0
20260502122924 51 156 0.0 0.0 0.00 0.00 0.00 11 1012.0
20260502122506 51 178 0.0 0.0 0.00 0.00 0.00 11 1012.0
20260502122424 51 178 0.0 0.0 0.00 0.00 0.00 11 1012.0
20260502121924 51 156 0.0 0.0 0.00 0.00 0.00 11 1012.0
20260502120924 51 156 0.0 0.0 0.00 0.00 0.00 11 1012.0
20260502120424 51 152 0.0 0.0 0.00 0.00 0.00 11 1012.0
20260502115924 51 177 0.0 0.0 0.00 0.00 0.00 11 1012.0
20260502114924 50 167 0.0 0.0 0.00 0.00 0.00 10 1012.0
20260502114424 50 160 0.0 0.0 0.00 0.00 0.00 10 1012.0
20260502113924 50 165 0.0 0.0 0.00 0.00 0.00 10 1012.0
20260502113424 49 152 0.0 0.0 0.00 0.00 0.00 10 1012.0
20260502112924 48 152 0.0 0.0 0.00 0.00 0.00 11 1012.0
20260502112424 48 176 0.0 0.0 0.00 0.00 0.00 10 1012.0
20260502111924 48 176 0.0 0.0 0.00 0.00 0.00 10 1012.0
20260502111425 48 158 0.0 0.0 0.00 0.00 0.00 10 1012.0
20260502110924 48 176 0.0 0.0 0.00 0.00 0.00 10 1012.0
20260502110424 48 151 0.0 0.0 0.00 0.00 0.00 10 1012.0
20260502105924 48 156 0.0 0.0 0.00 0.00 0.00 14 1012.0
20260502105425 49 175 0.0 0.0 0.00 0.00 0.00 11 1012.0
20260502104924 48 151 0.0 0.0 0.00 0.00 0.00 11 1012.0
20260502104424 49 152 0.0 0.0 0.00 0.00 0.00 11 1012.0
20260502103924 49 154 0.0 0.0 0.00 0.00 0.00 11 1012.0
20260502103424 48 157 0.0 0.0 0.00 0.00 0.00 14 1012.0
20260502102924 48 150 0.0 0.0 0.00 0.00 0.00 14 1012.0
20260502102424 48 175 0.0 0.0 0.00 0.00 0.00 14 1012.0
20260502101924 48 172 0.0 0.0 0.00 0.00 0.00 11 1012.0
20260502101424 48 168 0.0 0.0 0.00 0.00 0.00 10 1012.0
20260502100924 48 151 0.0 0.0 0.00 0.00 0.00 11 1012.0
20260502100424 48 152 0.0 0.0 0.00 0.00 0.00 11 1012.0
20260502091424 46 156 0.0 0.0 0.00 0.00 0.00 17 1012.0
20260502090924 46 176 0.0 0.0 0.00 0.00 0.00 17 1012.0
20260502090424 46 170 0.0 0.0 0.00 0.00 0.00 17 1012.0
20260502071424 41 171 0.0 0.0 0.00 0.00 0.00 10 1012.0
20260502070924 41 166 0.0 0.0 0.00 0.00 0.00 10 1012.0
20260502070424 41 174 0.0 0.0 0.00 0.00 0.00 10 1012.0
20260502065924 41 156 0.0 0.0 0.00 0.00 0.00 10 1012.0
20260502065424 40 164 0.0 0.0 0.00 0.00 0.00 10 1012.0
20260502064924 40 171 0.0 0.0 0.00 0.00 0.00 10 1012.0
20260502064424 40 162 0.0 0.0 0.00 0.00 0.00 10 1012.0
20260502063924 40 152 0.0 0.0 0.00 0.00 0.00 10 1012.0
20260502063424 39 160 0.0 0.0 0.00 0.00 0.00 10 1012.0
20260502062924 39 156 0.0 0.0 0.00 0.00 0.00 10 1012.0
20260502062424 39 179 0.0 0.0 0.00 0.00 0.00 10 1012.0
20260502061924 39 178 0.0 0.0 0.00 0.00 0.00 10 1012.0
20260502061424 39 177 0.0 0.0 0.00 0.00 0.00 10 1011.0
20260502060924 39 178 0.0 0.0 0.00 0.00 0.00 10 1011.0
20260502060428 39 157 0.0 0.0 0.00 0.00 0.00 10 1011.0
20260502055924 39 179 0.0 0.0 0.00 0.00 0.00 10 1011.0
20260502055424 39 159 0.0 0.0 0.00 0.00 0.00 10 1011.0
20260502054924 38 165 0.0 0.0 0.00 0.00 0.00 10 1011.0
20260502054424 38 178 0.0 0.0 0.00 0.00 0.00 10 1011.0
20260502053924 38 172 0.0 0.0 0.00 0.00 0.00 10 1011.0
20260502053424 38 181 0.0 0.0 0.00 0.00 0.00 10 1011.0
20260502052928 38 173 0.0 0.0 0.00 0.00 0.00 10 1011.0
20260502052428 37 156 0.0 0.0 0.00 0.00 0.00 10 1011.0
20260502051928 37 177 0.0 0.0 0.00 0.00 0.00 10 1011.0
20260502051424 37 157 0.0 0.0 0.00 0.00 0.00 10 1011.0
20260502050924 37 155 0.0 0.0 0.00 0.00 0.00 10 1011.0
20260502050424 37 170 0.0 0.0 0.00 0.00 0.00 10 1011.0
20260502045924 37 162 0.0 0.0 0.00 0.00 0.00 10 1011.0
20260502044924 36 174 0.0 0.0 0.00 0.00 0.00 10 1011.0
20260502044424 36 157 0.0 0.0 0.00 0.00 0.00 10 1011.0
20260502043924 36 156 0.0 0.0 0.00 0.00 0.00 10 1011.0
20260502043424 36 178 0.0 0.0 0.00 0.00 0.00 10 1011.0
20260502042924 36 156 0.0 0.0 0.00 0.00 0.00 10 1011.0
20260502042424 36 180 0.0 0.0 0.00 0.00 0.00 10 1011.0
20260502041924 36 178 0.0 0.0 0.00 0.00 0.00 10 1011.0
20260502041424 36 175 0.0 0.0 0.00 0.00 0.00 10 1011.0
20260502040924 36 167 0.0 0.0 0.00 0.00 0.00 11 1011.0
20260502035924 36 176 0.0 0.0 0.00 0.00 0.00 11 1011.0
20260502035424 36 176 0.0 0.0 0.00 0.00 0.00 11 1011.0
20260502034925 36 157 0.0 0.0 0.00 0.00 0.00 11 1011.0
20260502034424 36 164 0.0 0.0 0.00 0.00 0.00 11 1011.0
20260502033924 36 183 0.0 0.0 0.00 0.00 0.00 11 1011.0
20260502033424 36 157 0.0 0.0 0.00 0.00 0.00 11 1011.0
20260502032924 36 173 0.0 0.0 0.00 0.00 0.00 11 1011.0
20260502031924 35 164 0.0 0.0 0.00 0.00 0.00 11 1011.0
20260502031424 35 160 0.0 0.0 0.00 0.00 0.00 11 1011.0
20260502030924 35 159 0.0 0.0 0.00 0.00 0.00 11 1011.0
20260502030424 35 183 0.0 0.0 0.00 0.00 0.00 11 1011.0
20260502025924 35 159 0.0 0.0 0.00 0.00 0.00 11 1011.0
20260502025426 36 171 0.0 0.0 0.00 0.00 0.00 11 1011.0
20260502024924 35 164 0.0 0.0 0.00 0.00 0.00 11 1011.0
20260502024424 36 160 0.0 0.0 0.00 0.00 0.00 11 1011.0
20260502023924 36 167 0.0 0.0 0.00 0.00 0.00 11 1011.0
20260502023426 35 162 0.0 0.0 0.00 0.00 0.00 11 1011.0
20260502022924 35 161 0.0 0.0 0.00 0.00 0.00 11 1011.0
20260502022424 36 160 0.0 0.0 0.00 0.00 0.00 11 1011.0
20260502021924 36 168 0.0 0.0 0.00 0.00 0.00 11 1011.0
20260502021424 36 160 0.0 0.0 0.00 0.00 0.00 11 1011.0
20260502020924 36 162 0.0 0.0 0.00 0.00 0.00 11 1011.0
20260502020424 36 172 0.0 0.0 0.00 0.00 0.00 11 1011.0
20260502015924 36 181 0.0 0.0 0.00 0.00 0.00 11 1011.0
20260502015424 36 160 0.0 0.0 0.00 0.00 0.00 11 1011.0
20260502014924 36 186 0.0 0.0 0.00 0.00 0.00 10 1011.0
20260502014424 36 163 0.0 0.0 0.00 0.00 0.00 10 1011.0
20260502013424 36 165 0.0 0.0 0.00 0.00 0.00 10 1011.0
20260502012924 37 161 0.0 0.0 0.00 0.00 0.00 10 1011.0
20260502012424 37 181 0.0 0.0 0.00 0.00 0.00 10 1011.0
20260502011924 37 186 0.0 0.0 0.00 0.00 0.00 10 1011.0
20260502011424 37 166 0.0 0.0 0.00 0.00 0.00 10 1011.0
20260502010924 37 182 0.0 0.0 0.00 0.00 0.00 10 1011.0
20260502010424 38 174 0.0 0.0 0.00 0.00 0.00 10 1011.0
20260502005924 38 185 0.0 0.0 0.00 0.00 0.00 10 1011.0
20260502005424 38 161 0.0 0.0 0.00 0.00 0.00 10 1011.0
20260502004924 38 171 0.0 0.0 0.00 0.00 0.00 10 1011.0
20260502004424 38 184 0.0 0.0 0.00 0.00 0.00 10 1011.0
20260502003924 38 184 0.0 0.0 0.00 0.00 0.00 10 1011.0
20260502003424 39 161 0.0 0.0 0.00 0.00 0.00 10 1011.0
20260502002924 39 187 0.0 0.0 0.00 0.00 0.00 10 1011.0
20260502002424 39 186 0.0 0.0 0.00 0.00 0.00 10 1011.0
20260502001924 39 181 0.0 0.0 0.00 0.00 0.00 10 1011.0
20260502001424 39 167 0.0 0.0 0.00 0.00 0.00 10 1011.0
20260502000924 39 162 0.0 0.0 0.00 0.00 0.00 10 1011.0
20260502000424 39 187 0.0 0.0 0.00 0.00 0.00 10 1011.0
20260501235924 39 162 0.0 0.0 0.00 0.00 0.00 10 1011.0
20260501235424 40 161 0.0 0.0 0.00 0.00 0.00 10 1011.0
20260501234924 40 187 0.0 0.0 0.00 0.00 0.00 10 1011.0
20260501234424 40 168 0.0 0.0 0.00 0.00 0.00 10 1011.0
20260501233924 40 171 0.0 0.0 0.00 0.00 0.00 10 1011.0
20260501233424 40 184 0.0 0.0 0.00 0.00 0.00 10 1011.0
20260501232924 40 182 0.0 0.0 0.00 0.00 0.00 10 1011.0
20260501232424 40 169 0.0 0.0 0.00 0.00 0.00 10 1011.0
20260501231924 40 161 0.0 0.0 0.00 0.00 0.00 10 1011.0
20260501231424 40 168 0.0 0.0 0.00 0.00 0.00 10 1012.0
20260501230924 41 166 0.0 0.0 0.00 0.00 0.00 10 1012.0
20260501230424 41 172 0.0 0.0 0.00 0.00 0.00 10 1012.0
20260501225924 41 174 0.0 0.0 0.00 0.00 0.00 10 1012.0
20260501225424 41 166 0.0 0.0 0.00 0.00 0.00 10 1012.0
20260501224924 41 160 0.0 0.0 0.00 0.00 0.00 10 1012.0
20260501224424 41 180 0.0 0.0 0.00 0.00 0.00 10 1012.0
20260501223924 41 159 0.0 0.0 0.00 0.00 0.00 10 1012.0
20260501223424 41 166 0.0 0.0 0.00 0.00 0.00 10 1012.0
20260501222424 42 185 0.0 0.0 0.00 0.00 0.00 10 1012.0
20260501221924 42 175 0.0 0.0 0.00 0.00 0.00 10 1012.0
20260501221424 42 183 0.0 0.0 0.00 0.00 0.00 10 1012.0
20260501220924 41 182 0.0 0.0 0.00 0.00 0.00 10 1012.0
20260501220424 41 160 0.0 0.0 0.00 0.00 0.00 10 1012.0
20260501215924 41 172 0.0 0.0 0.00 0.00 0.00 10 1012.0
20260501215424 41 176 0.0 0.0 0.00 0.00 0.00 10 1012.0
20260501214924 41 166 0.0 0.0 0.00 0.00 0.00 10 1012.0
20260501214424 41 161 0.0 0.0 0.00 0.00 0.00 10 1012.0
20260501213924 41 182 0.0 0.0 0.00 0.00 0.00 10 1012.0
20260501213426 41 174 0.0 0.0 0.00 0.00 0.00 10 1012.0
20260501212924 41 184 0.0 0.0 0.00 0.00 0.00 10 1012.0
20260501212424 41 174 0.0 0.0 0.00 0.00 0.00 10 1012.0
20260501211924 41 167 0.0 0.0 0.00 0.00 0.00 10 1012.0
20260501211424 41 171 0.0 0.0 0.00 0.00 0.00 10 1012.0
20260501210924 41 180 0.0 0.0 0.00 0.00 0.00 10 1012.0
20260501210424 41 166 0.0 0.0 0.00 0.00 0.00 10 1012.0
20260501205924 41 177 0.0 0.0 0.00 0.00 0.00 10 1012.0
20260501205424 41 177 0.0 0.0 0.00 0.00 0.00 10 1012.0
20260501204924 41 158 0.0 0.0 0.00 0.00 0.00 10 1012.0
20260501204424 41 175 0.0 0.0 0.00 0.00 0.00 10 1012.0
20260501203924 41 175 0.0 0.0 0.00 0.00 0.00 10 1012.0
20260501203424 41 176 0.0 0.0 0.00 0.00 0.00 10 1012.0
20260501202924 41 182 0.0 0.0 0.00 0.00 0.00 10 1012.0
20260501202424 41 158 0.0 0.0 0.00 0.00 0.00 10 1012.0
20260501201924 41 183 0.0 0.0 0.00 0.00 0.00 10 1012.0
20260501201424 41 158 0.0 0.0 0.00 0.00 0.00 10 1012.0
20260501200924 41 182 0.0 0.0 0.00 0.00 0.00 10 1012.0
20260501200424 41 170 0.0 0.0 0.00 0.00 0.00 10 1012.0